Home   Weather   Germany   Werl   Past weeks
Flag for Germany

Past Weather in Werl, North Rhine-Westphalia, Germany — Yesterday and Last 2 Weeks

Currently: 50 °F. Clear. (Weather station: Dortmund / Wickede, Germany). See more current weather

Past Weather in Werl — Graph

°F

Werl Temperature Yesterday

Maximum temperature yesterday: 63 °F (at 1:50 pm)
Minimum temperature yesterday: 30 °F (at 6:50 am)
Average temperature yesterday: 46 °F

High & Low Weather Summary for the Past Weeks

 TemperatureHumidityPressure
High66 °F (Feb 21, 3:20 pm)100% (Feb 26, 3:20 am)30.72 "Hg (Feb 26, 3:20 am)
Low30 °F (Mar 2, 6:50 am)27% (Mar 2, 3:20 pm)29.71 "Hg (Feb 18, 6:20 pm)
Average50 °F70%30.26 "Hg
* Reported Feb 16 9:20 pm — Mar 3 9:50 pm, Werl. Weather by CustomWeather, © 2021

Note: Actual official high and low records may vary slightly from our data, if they occured in-between our weather recording intervals... More about our weather records

Werl Weather History for the Previous 24 Hours

Scroll right to see more
 ConditionsComfort  
Time TempWeatherWind HumidityBarometerVisibility
9:50 pm
Wed, Mar 3
52 °FClear.2 mph62%30.24 "Hg10 mi
9:20 pm52 °FClear.5 mph62%30.24 "Hg10 mi
8:50 pm52 °FClear.3 mph62%30.24 "Hg10 mi
8:20 pm52 °FClear.5 mph62%30.24 "Hg10 mi
7:50 pm54 °FClear.2 mph58%30.27 "Hg10 mi
7:20 pm55 °FClear.No wind59%30.27 "Hg10 mi
6:50 pm54 °FClear.2 mph58%30.27 "Hg10 mi
6:20 pm52 °FClear.7 mph62%30.27 "Hg10 mi
5:50 pm54 °FSunny.7 mph63%30.27 "Hg10 mi
5:20 pm59 °FPassing clouds.6 mph48%30.27 "HgN/A
4:50 pm59 °FPassing clouds.7 mph48%30.27 "HgN/A
4:20 pm59 °FPassing clouds.8 mph48%30.27 "HgN/A
3:50 pm59 °FSunny.9 mph48%30.27 "Hg10 mi
3:20 pm61 °FPassing clouds.8 mph45%30.30 "HgN/A
2:50 pm59 °FSunny.9 mph48%30.30 "Hg10 mi
2:20 pm61 °FSunny.13 mph45%30.30 "Hg10 mi
1:50 pm61 °FSunny.10 mph48%30.30 "Hg10 mi
1:20 pm59 °FSunny.9 mph51%30.33 "Hg10 mi
12:50 pm59 °FPassing clouds.9 mph48%30.33 "HgN/A
12:20 pm57 °FSunny.9 mph51%30.33 "Hg10 mi
11:50 am55 °FSunny.7 mph51%30.33 "Hg10 mi
11:20 am54 °FSunny.6 mph51%30.33 "Hg10 mi
10:50 am52 °FSunny.7 mph54%30.36 "Hg10 mi
10:20 am50 °FSunny.10 mph58%30.36 "Hg10 mi
9:50 am48 °FSunny.9 mph62%30.36 "Hg10 mi
9:20 am46 °FSunny.10 mph62%30.36 "Hg10 mi
8:50 am45 °FSunny.12 mph66%30.36 "Hg10 mi
8:20 am45 °FSunny.10 mph66%30.36 "Hg10 mi
7:50 am43 °FSunny.12 mph71%30.36 "Hg10 mi
7:20 am43 °FSunny.12 mph66%30.36 "Hg10 mi
6:50 am43 °FClear.10 mph66%30.36 "Hg10 mi
6:20 am43 °FClear.12 mph71%30.36 "Hg10 mi
5:50 am43 °FClear.12 mph71%30.36 "Hg10 mi
5:20 am43 °FClear.12 mph71%30.36 "Hg10 mi
4:50 am45 °FClear.12 mph66%30.36 "HgN/A
4:20 am45 °FClear.12 mph66%30.36 "HgN/A
3:50 am46 °FClear.12 mph62%30.36 "HgN/A
3:20 am46 °FClear.12 mph62%30.36 "HgN/A
2:50 am45 °FClear.10 mph66%30.39 "HgN/A
2:20 am45 °FClear.10 mph66%30.39 "HgN/A
1:50 am45 °FClear.10 mph66%30.39 "HgN/A
1:20 am46 °FClear.12 mph62%30.39 "HgN/A
12:50 am48 °FClear.10 mph58%30.39 "HgN/A
12:20 am48 °FClear.12 mph58%30.39 "HgN/A
11:50 pm
Tue, Mar 2
46 °FClear.10 mph62%30.39 "HgN/A
11:20 pm46 °FClear.10 mph66%30.39 "HgN/A
Weather by CustomWeather, © 2021

See weather overview